My Profile
  1. Member Settings
  2. My Devices
  3. Sign Out
        More Settings
      Elev 1801 ft, 49.787 °N 15.794 °E

      Trhová Kamenice, CZ

      Summary

      Temperature (°F)MaxAverageMin
      Max Temperature8369.8459
      Avg Temperature70.561.6151.17
      Min Temperature6254.3447
      Precipitation (in)MaxAverageMinSum
      Precipitation0.80.1103.36
      Dew Point (°F)MaxAverageMin
      Dew Point57.2250.542.08
      Wind (mph)MaxAverageMin
      Wind2213.099
      Gust Wind3626.8820
      Sea Level Pressure (in)MaxAverageMin
      Sea Level Pressure27.7527.5227.39

      Daily Observations

      DateTemp High/LowDew Pt High/LowHumidityWindMax WindWind GustPressurePrecip.Condition
      7/1/2020 78 °F / 55 °F 62 °F / 49 °F 65 % 20 mph - 27.39 in 0 in
      7/2/2020 74 °F / 56 °F 60 °F / 53 °F 77 % 18 mph - 27.39 in 0.38 in
      7/3/2020 65 °F / 57 °F 57 °F / 48 °F 83 % 13 mph - 27.49 in 0 in
      7/4/2020 70 °F / 54 °F 51 °F / 47 °F 63 % 11 mph - 27.57 in 0 in
      7/5/2020 77 °F / 57 °F 59 °F / 48 °F 64 % 18 mph - 27.51 in 0 in
      7/6/2020 71 °F / 56 °F 59 °F / 40 °F 73 % 18 mph - 27.41 in 0.03 in
      7/7/2020 60 °F / 47 °F 45 °F / 40 °F 70 % 16 mph - 27.55 in 0 in
      7/8/2020 62 °F / 50 °F 52 °F / 41 °F 77 % 13 mph - 27.52 in 0.19 in
      7/9/2020 69 °F / 51 °F 59 °F / 51 °F 87 % 16 mph - 27.53 in 0 in
      7/10/2020 83 °F / 62 °F 58 °F / 50 °F 60 % 22 mph - 27.45 in 0.09 in
      7/11/2020 60 °F / 48 °F 59 °F / 42 °F 97 % 13 mph - 27.61 in 0.68 in
      7/12/2020 63 °F / 47 °F 49 °F / 42 °F 72 % 9 mph - 27.74 in 0 in
      7/13/2020 63 °F / 52 °F 45 °F / 40 °F 58 % 9 mph - 27.71 in 0 in
      7/14/2020 67 °F / 48 °F 48 °F / 41 °F 60 % 13 mph - 27.54 in 0 in
      7/15/2020 69 °F / 53 °F 53 °F / 44 °F 68 % 16 mph - 27.42 in 0.17 in
      7/16/2020 62 °F / 51 °F 53 °F / 46 °F 80 % 11 mph - 27.46 in 0.01 in
      7/17/2020 60 °F / 48 °F 49 °F / 44 °F 80 % 11 mph - 27.54 in 0.01 in
      7/18/2020 64 °F / 50 °F 58 °F / 45 °F 90 % 11 mph - 27.54 in 0.26 in
      7/19/2020 70 °F / 56 °F 59 °F / 53 °F 84 % 13 mph - 27.52 in 0.8 in
      7/20/2020 74 °F / 58 °F 60 °F / 54 °F 73 % 11 mph - 27.52 in 0.24 in
      7/21/2020 71 °F / 57 °F 57 °F / 50 °F 74 % 9 mph - 27.61 in 0.11 in
      7/22/2020 70 °F / 53 °F 52 °F / 42 °F 59 % 9 mph - 27.62 in 0 in
      7/23/2020 71 °F / 55 °F 53 °F / 43 °F 59 % 11 mph - 27.5 in 0 in
      7/24/2020 76 °F / 56 °F 55 °F / 47 °F 58 % 11 mph - 27.4 in 0 in
      7/25/2020 74 °F / 59 °F 54 °F / 48 °F 60 % 9 mph - 27.44 in 0 in
      7/26/2020 73 °F / 59 °F 58 °F / 49 °F 69 % 18 mph - 27.47 in 0.29 in
      7/27/2020 74 °F / 56 °F 58 °F / 48 °F 69 % 11 mph - 27.55 in 0 in
      7/28/2020 83 °F / 60 °F 60 °F / 48 °F 59 % 18 mph - 27.44 in 0.1 in
      7/29/2020 73 °F / 59 °F 58 °F / 46 °F 64 % 13 mph - 27.55 in 0 in
      7/30/2020 76 °F / 57 °F 51 °F / 40 °F 48 % 9 mph - 27.62 in 0 in
      7/31/2020 74 °F / 62 °F 49 °F / 38 °F 45 % 13 mph - 27.57 in 0 in
      essentialaccessibility.com
      We recognize our responsibility to use data and technology for good. We may use or share your data with our data vendors. Take control of your data.
      Glossary